Time,TemperatureF,DewpointF,PressureIn,WindDirection,WindDirectionDegrees,WindSpeedMPH,WindSpeedGustMPH,Humidity,HourlyPrecipIn,Conditions,Clouds,dailyrainin,SolarRadiationWatts/m^2,SoftwareType,DateUTC
2013-03-10 00:01:00,41.0,37.0,30.21,North,8,5.0,7.0,87,-99.99,,,-99.99,0.000000,,2013-03-10 08:01:00,
2013-03-10 00:11:00,41.0,37.0,30.21,North,9,5.0,7.0,85,-99.99,,,-99.99,0.000000,,2013-03-10 08:11:00,
2013-03-10 00:21:00,40.0,36.0,30.21,ENE,57,5.0,8.0,86,-99.99,,,-99.99,0.000000,,2013-03-10 08:21:00,
2013-03-10 00:31:00,40.0,36.0,30.21,NE,45,5.0,6.0,86,-99.99,,,-99.99,0.000000,,2013-03-10 08:31:00,
2013-03-10 00:42:00,40.0,36.0,30.21,ENE,72,3.0,5.0,85,-99.99,,,-99.99,0.000000,,2013-03-10 08:42:00,
2013-03-10 00:51:00,40.0,36.0,30.21,NNW,329,1.0,3.0,86,-99.99,,,-99.99,0.000000,,2013-03-10 08:51:00,
2013-03-10 01:01:00,40.0,36.0,30.21,NNW,329,1.0,3.0,86,-99.99,,,-99.99,0.000000,,2013-03-10 09:01:00,
2013-03-10 01:11:00,41.0,37.0,30.21,NE,54,2.0,5.0,85,-99.99,,,-99.99,0.000000,,2013-03-10 09:11:00,
2013-03-10 01:21:00,40.0,36.0,30.21,NNE,13,4.0,8.0,86,-99.99,,,-99.99,0.000000,,2013-03-10 09:21:00,
2013-03-10 01:31:00,39.0,36.0,30.24,NNE,20,4.0,7.0,88,-99.99,,,-99.99,0.000000,,2013-03-10 09:31:00,
2013-03-10 01:41:00,39.0,36.0,30.24,NNE,20,4.0,7.0,88,-99.99,,,-99.99,0.000000,,2013-03-10 09:41:00,
2013-03-10 01:51:00,40.0,36.0,30.24,NE,53,4.0,6.0,86,-99.99,,,-99.99,0.000000,,2013-03-10 09:51:00,
2013-03-10 03:01:00,40.0,36.0,30.24,NE,53,4.0,6.0,86,-99.99,,,-99.99,0.000000,,2013-03-10 10:01:00,
2013-03-10 03:11:00,39.0,35.0,30.24,NNE,14,2.0,3.0,86,-99.99,,,-99.99,0.000000,,2013-03-10 10:11:00,
2013-03-10 03:21:00,39.0,35.0,30.24,NNE,14,2.0,3.0,86,-99.99,,,-99.99,0.000000,,2013-03-10 10:21:00,
2013-03-10 03:32:00,40.0,36.0,30.24,NW,326,2.0,4.0,86,-99.99,,,-99.99,0.000000,,2013-03-10 10:32:00,
2013-03-10 03:41:00,40.0,36.0,30.24,NW,326,2.0,4.0,86,-99.99,,,-99.99,0.000000,,2013-03-10 10:41:00,
2013-03-10 03:51:00,40.0,35.0,30.24,ENE,66,3.0,5.0,83,-99.99,,,-99.99,0.000000,,2013-03-10 10:51:00,
2013-03-10 04:01:00,36.0,33.0,30.24,NNE,32,5.0,7.0,87,-99.99,,,-99.99,0.000000,,2013-03-10 11:01:00,
2013-03-10 04:11:00,38.0,35.0,30.24,NE,41,5.0,8.0,90,-99.99,,,-99.99,0.000000,,2013-03-10 11:11:00,
2013-03-10 04:21:00,39.0,35.0,30.21,NE,50,4.0,6.0,84,-99.99,,,-99.99,0.000000,,2013-03-10 11:21:00,
2013-03-10 04:31:00,37.0,34.0,30.21,ENE,64,4.0,7.0,87,-99.99,,,-99.99,0.000000,,2013-03-10 11:31:00,
2013-03-10 04:42:00,37.0,34.0,30.21,NE,41,5.0,8.0,89,-99.99,,,-99.99,0.000000,,2013-03-10 11:42:00,
2013-03-10 04:52:00,38.0,35.0,30.21,NE,39,4.0,6.0,88,-99.99,,,-99.99,0.000000,,2013-03-10 11:52:00,
2013-03-10 05:01:00,39.0,36.0,30.21,NE,38,3.0,4.0,88,-99.99,,,-99.99,0.000000,,2013-03-10 12:01:00,
2013-03-10 05:11:00,38.0,34.0,30.21,ESE,109,3.0,7.0,85,-99.99,,,-99.99,0.000000,,2013-03-10 12:11:00,
2013-03-10 05:21:00,38.0,35.0,30.21,NNE,20,3.0,5.0,88,-99.99,,,-99.99,0.000000,,2013-03-10 12:21:00,
2013-03-10 05:31:00,41.0,37.0,30.21,NNW,327,3.0,6.0,84,-99.99,,,-99.99,0.000000,,2013-03-10 12:31:00,
2013-03-10 05:42:00,40.0,34.0,30.21,NE,34,1.0,4.0,79,-99.99,,,-99.99,0.000000,,2013-03-10 12:42:00,
2013-03-10 05:51:00,40.0,34.0,30.21,NNE,21,2.0,5.0,79,-99.99,,,-99.99,0.000000,,2013-03-10 12:51:00,
2013-03-10 06:01:00,40.0,34.0,30.21,NNE,21,2.0,5.0,79,-99.99,,,-99.99,0.000000,,2013-03-10 13:01:00,
2013-03-10 06:11:00,38.0,33.0,30.21,South,174,2.0,4.0,83,-99.99,,,-99.99,0.000000,,2013-03-10 13:11:00,
2013-03-10 06:21:00,38.0,34.0,30.21,NNE,14,3.0,5.0,85,-99.99,,,-99.99,0.000000,,2013-03-10 13:21:00,
2013-03-10 06:31:00,39.0,33.0,30.21,NE,35,5.0,6.0,80,-99.99,,,-99.99,0.000000,,2013-03-10 13:31:00,
2013-03-10 06:41:00,39.0,34.0,30.21,North,359,4.0,5.0,83,-99.99,,,-99.99,0.000000,,2013-03-10 13:41:00,
2013-03-10 06:51:00,40.0,34.0,30.21,NE,50,3.0,5.0,78,-99.99,,,-99.99,0.000000,,2013-03-10 13:51:00,
2013-03-10 07:01:00,40.0,34.0,30.21,NE,50,3.0,5.0,78,-99.99,,,-99.99,0.000000,,2013-03-10 14:01:00,
2013-03-10 07:11:00,37.0,31.0,30.24,NE,45,3.0,6.0,79,-99.99,,,-99.99,0.000000,,2013-03-10 14:11:00,
2013-03-10 07:21:00,36.0,32.0,30.24,NNE,18,2.0,4.0,85,-99.99,,,-99.99,0.270000,,2013-03-10 14:21:00,
2013-03-10 07:32:00,38.0,33.0,30.24,NNE,23,2.0,5.0,82,-99.99,,,-99.99,1.700000,,2013-03-10 14:32:00,
2013-03-10 07:41:00,39.0,32.0,30.24,NNE,19,2.0,4.0,75,-99.99,,,-99.99,5.510000,,2013-03-10 14:41:00,
2013-03-10 07:51:00,38.0,30.0,30.24,NE,48,2.0,5.0,72,-99.99,,,-99.99,11.150000,,2013-03-10 14:51:00,
2013-03-10 08:01:00,38.0,30.0,30.24,NE,48,2.0,5.0,72,-99.99,,,-99.99,11.150000,,2013-03-10 15:01:00,
2013-03-10 08:11:00,38.0,32.0,30.24,NNE,21,4.0,9.0,80,-99.99,,,-99.99,70.230003,,2013-03-10 15:11:00,
2013-03-10 08:21:00,40.0,32.0,30.24,NNW,336,2.0,5.0,74,-99.99,,,-99.99,110.900002,,2013-03-10 15:21:00,
2013-03-10 08:31:00,41.0,32.0,30.24,ENE,59,3.0,6.0,70,-99.99,,,-99.99,151.100006,,2013-03-10 15:31:00,
2013-03-10 08:40:00,47.0,35.0,30.27,East,92,1.0,3.0,64,-99.99,,,-99.99,297.700012,,2013-03-10 15:40:00,
2013-03-10 08:41:00,40.0,33.0,30.24,ENE,77,4.0,5.0,75,-99.99,,,-99.99,186.699997,,2013-03-10 15:41:00,
2013-03-10 08:51:00,42.0,35.0,30.27,ENE,67,1.0,3.0,75,-99.99,,,-99.99,222.800003,,2013-03-10 15:51:00,
2013-03-10 09:01:00,42.0,35.0,30.27,ENE,67,1.0,3.0,75,-99.99,,,-99.99,222.800003,,2013-03-10 16:01:00,
2013-03-10 09:11:00,47.0,35.0,30.27,East,92,1.0,3.0,64,-99.99,,,-99.99,297.700012,,2013-03-10 16:11:00,
2013-03-10 09:21:00,47.0,35.0,30.27,East,92,1.0,3.0,64,-99.99,,,-99.99,297.700012,,2013-03-10 16:21:00,
2013-03-10 09:31:00,47.0,35.0,30.27,East,92,1.0,3.0,64,-99.99,,,-99.99,297.700012,,2013-03-10 16:31:00,
2013-03-10 11:11:00,61.0,23.0,30.27,ESE,105,5.0,13.0,23,-99.99,,,-99.99,698.700012,,2013-03-10 18:11:00,
2013-03-10 11:21:00,60.0,23.0,30.27,NNE,19,6.0,10.0,24,-99.99,,,-99.99,722.700012,,2013-03-10 18:21:00,
2013-03-10 11:31:00,60.0,23.0,30.27,NNE,19,6.0,10.0,24,-99.99,,,-99.99,722.700012,,2013-03-10 18:31:00,
2013-03-10 11:41:00,61.0,22.0,30.27,NE,48,6.0,13.0,22,-99.99,,,-99.99,773.400024,,2013-03-10 18:41:00,
2013-03-10 11:52:00,61.0,20.0,30.27,NNW,334,3.0,8.0,20,-99.99,,,-99.99,792.900024,,2013-03-10 18:52:00,
2013-03-10 12:01:00,62.0,19.0,30.27,NNE,25,3.0,7.0,19,-99.99,,,-99.99,812.000000,,2013-03-10 19:01:00,
2013-03-10 12:11:00,62.0,20.0,30.27,North,2,4.0,9.0,20,-99.99,,,-99.99,829.000000,,2013-03-10 19:11:00,
2013-03-10 12:21:00,62.0,20.0,30.27,North,357,3.0,7.0,20,-99.99,,,-99.99,844.000000,,2013-03-10 19:21:00,
2013-03-10 12:31:00,63.0,19.0,30.27,ENE,68,2.0,5.0,18,-99.99,,,-99.99,858.000000,,2013-03-10 19:31:00,
2013-03-10 12:41:00,63.0,24.0,30.27,NW,311,3.0,7.0,22,-99.99,,,-99.99,863.000000,,2013-03-10 19:41:00,
2013-03-10 12:52:00,62.0,28.0,30.27,WSW,239,5.0,12.0,27,-99.99,,,-99.99,870.000000,,2013-03-10 19:52:00,
2013-03-10 13:01:00,62.0,28.0,30.27,WSW,239,5.0,12.0,27,-99.99,,,-99.99,870.000000,,2013-03-10 20:01:00,
2013-03-10 13:12:00,61.0,30.0,30.24,SSW,196,8.0,12.0,31,-99.99,,,-99.99,877.000000,,2013-03-10 20:12:00,
2013-03-10 13:22:00,62.0,29.0,30.24,SW,227,6.0,11.0,29,-99.99,,,-99.99,883.000000,,2013-03-10 20:22:00,
2013-03-10 13:32:00,63.0,29.0,30.24,SW,220,7.0,11.0,27,-99.99,,,-99.99,863.000000,,2013-03-10 20:32:00,
2013-03-10 13:42:00,63.0,27.0,30.24,SSE,152,3.0,7.0,25,-99.99,,,-99.99,877.000000,,2013-03-10 20:42:00,
2013-03-10 13:52:00,65.0,26.0,30.24,NNE,19,3.0,10.0,23,-99.99,,,-99.99,892.000000,,2013-03-10 20:52:00,
2013-03-10 14:02:00,65.0,26.0,30.24,NNE,19,3.0,10.0,23,-99.99,,,-99.99,892.000000,,2013-03-10 21:02:00,
2013-03-10 14:12:00,65.0,18.0,30.21,NE,35,6.0,12.0,16,-99.99,,,-99.99,885.000000,,2013-03-10 21:12:00,
2013-03-10 14:22:00,65.0,18.0,30.21,ENE,58,4.0,10.0,16,-99.99,,,-99.99,877.000000,,2013-03-10 21:22:00,
2013-03-10 14:32:00,66.0,20.0,30.21,NNE,20,5.0,13.0,17,-99.99,,,-99.99,866.000000,,2013-03-10 21:32:00,
2013-03-10 14:42:00,66.0,23.0,30.21,ESE,113,7.0,11.0,19,-99.99,,,-99.99,830.000000,,2013-03-10 21:42:00,
2013-03-10 14:52:00,63.0,33.0,30.21,SW,235,12.0,19.0,32,-99.99,,,-99.99,831.000000,,2013-03-10 21:52:00,
2013-03-10 15:02:00,63.0,33.0,30.21,WSW,255,10.0,18.0,32,-99.99,,,-99.99,815.000000,,2013-03-10 22:02:00,
2013-03-10 15:12:00,63.0,32.0,30.21,WSW,255,8.0,15.0,31,-99.99,,,-99.99,796.200012,,2013-03-10 22:12:00,
2013-03-10 15:22:00,64.0,32.0,30.21,WSW,246,8.0,12.0,30,-99.99,,,-99.99,777.400024,,2013-03-10 22:22:00,
2013-03-10 15:32:00,64.0,31.0,30.21,WSW,253,7.0,14.0,29,-99.99,,,-99.99,755.700012,,2013-03-10 22:32:00,
2013-03-10 15:42:00,65.0,31.0,30.21,West,272,5.0,10.0,28,-99.99,,,-99.99,734.099976,,2013-03-10 22:42:00,
2013-03-10 15:52:00,64.0,35.0,30.21,WSW,240,13.0,20.0,34,-99.99,,,-99.99,701.900024,,2013-03-10 22:52:00,
2013-03-10 16:02:00,62.0,37.0,30.21,West,261,10.0,18.0,39,-99.99,,,-99.99,675.900024,,2013-03-10 23:02:00,
2013-03-10 16:12:00,62.0,39.0,30.21,WSW,251,11.0,17.0,43,-99.99,,,-99.99,639.700012,,2013-03-10 23:12:00,
2013-03-10 16:22:00,62.0,40.0,30.21,WSW,256,9.0,17.0,44,-99.99,,,-99.99,613.500000,,2013-03-10 23:22:00,
2013-03-10 16:32:00,61.0,40.0,30.21,WSW,248,11.0,17.0,45,-99.99,,,-99.99,554.099976,,2013-03-10 23:32:00,
2013-03-10 16:42:00,61.0,40.0,30.21,WSW,248,11.0,17.0,45,-99.99,,,-99.99,554.099976,,2013-03-10 23:42:00,
2013-03-10 16:52:00,62.0,39.0,30.21,WSW,251,9.0,14.0,43,-99.99,,,-99.99,521.799988,,2013-03-10 23:52:00,
2013-03-10 17:02:00,62.0,37.0,30.21,SW,235,10.0,16.0,39,-99.99,,,-99.99,491.200012,,2013-03-11 00:02:00,
2013-03-10 17:12:00,62.0,37.0,30.21,West,269,5.0,11.0,39,-99.99,,,-99.99,460.500000,,2013-03-11 00:12:00,
2013-03-10 17:22:00,63.0,37.0,30.21,WNW,302,4.0,9.0,38,-99.99,,,-99.99,425.600006,,2013-03-11 00:22:00,
2013-03-10 17:32:00,63.0,36.0,30.21,NW,314,4.0,8.0,37,-99.99,,,-99.99,389.299988,,2013-03-11 00:32:00,
2013-03-10 17:42:00,62.0,33.0,30.21,NW,318,7.0,11.0,34,-99.99,,,-99.99,352.399994,,2013-03-11 00:42:00,
2013-03-10 17:52:00,62.0,32.0,30.21,NW,314,6.0,14.0,32,-99.99,,,-99.99,291.500000,,2013-03-11 00:52:00,
2013-03-10 18:02:00,63.0,32.0,30.21,NW,306,5.0,10.0,31,-99.99,,,-99.99,284.200012,,2013-03-11 01:02:00,
2013-03-10 18:12:00,62.0,30.0,30.21,WNW,298,6.0,10.0,30,-99.99,,,-99.99,245.399994,,2013-03-11 01:12:00,
2013-03-10 18:22:00,63.0,32.0,30.21,West,276,3.0,8.0,31,-99.99,,,-99.99,206.300003,,2013-03-11 01:22:00,
2013-03-10 18:32:00,62.0,31.0,30.21,West,268,4.0,7.0,31,-99.99,,,-99.99,169.300003,,2013-03-11 01:32:00,
2013-03-10 18:42:00,61.0,31.0,30.21,West,278,5.0,8.0,32,-99.99,,,-99.99,132.899994,,2013-03-11 01:42:00,
2013-03-10 18:52:00,60.0,33.0,30.21,WNW,286,5.0,8.0,36,-99.99,,,-99.99,76.099998,,2013-03-11 01:52:00,
2013-03-10 19:02:00,59.0,35.0,30.21,NNW,336,3.0,6.0,41,-99.99,,,-99.99,17.730000,,2013-03-11 02:02:00,
2013-03-10 19:12:00,58.0,34.0,30.21,NNW,335,3.0,6.0,41,-99.99,,,-99.99,12.730000,,2013-03-11 02:12:00,
2013-03-10 19:21:00,57.0,35.0,30.21,NW,321,4.0,6.0,43,-99.99,,,-99.99,7.630000,,2013-03-11 02:21:00,
2013-03-10 19:32:00,56.0,35.0,30.21,NNW,344,3.0,6.0,45,-99.99,,,-99.99,3.100000,,2013-03-11 02:32:00,
2013-03-10 19:42:00,55.0,37.0,30.21,NE,44,1.0,3.0,50,-99.99,,,-99.99,0.720000,,2013-03-11 02:42:00,
2013-03-10 19:52:00,55.0,36.0,30.24,NE,42,1.0,4.0,48,-99.99,,,-99.99,0.040000,,2013-03-11 02:52:00,
2013-03-10 20:02:00,54.0,35.0,30.24,NNW,347,2.0,5.0,48,-99.99,,,-99.99,0.000000,,2013-03-11 03:02:00,
2013-03-10 20:12:00,53.0,36.0,30.24,ENE,72,3.0,4.0,52,-99.99,,,-99.99,0.000000,,2013-03-11 03:12:00,
2013-03-10 20:22:00,51.0,37.0,30.24,NE,49,1.0,2.0,58,-99.99,,,-99.99,0.000000,,2013-03-11 03:22:00,
2013-03-10 20:32:00,51.0,37.0,30.24,NNE,28,0.0,2.0,58,-99.99,,,-99.99,0.000000,,2013-03-11 03:32:00,
2013-03-10 20:42:00,51.0,35.0,30.24,NNE,15,1.0,4.0,55,-99.99,,,-99.99,0.000000,,2013-03-11 03:42:00,
2013-03-10 20:52:00,50.0,36.0,30.24,North,354,2.0,3.0,58,-99.99,,,-99.99,0.000000,,2013-03-11 03:52:00,
2013-03-10 21:02:00,51.0,34.0,30.24,NNE,15,2.0,5.0,52,-99.99,,,-99.99,0.000000,,2013-03-11 04:02:00,
2013-03-10 21:12:00,51.0,35.0,30.24,North,359,3.0,5.0,54,-99.99,,,-99.99,0.000000,,2013-03-11 04:12:00,
2013-03-10 21:22:00,50.0,35.0,30.24,NNW,339,1.0,4.0,56,-99.99,,,-99.99,0.010000,,2013-03-11 04:22:00,
2013-03-10 21:32:00,51.0,33.0,30.24,NNE,16,3.0,5.0,50,-99.99,,,-99.99,0.020000,,2013-03-11 04:32:00,
2013-03-10 21:42:00,51.0,33.0,30.24,NNE,16,3.0,5.0,50,-99.99,,,-99.99,0.020000,,2013-03-11 04:42:00,
2013-03-10 21:52:00,49.0,34.0,30.24,NNE,25,2.0,4.0,57,-99.99,,,-99.99,0.030000,,2013-03-11 04:52:00,
2013-03-10 22:11:00,47.0,35.0,30.24,NE,34,2.0,4.0,63,-99.99,,,-99.99,0.140000,,2013-03-11 05:11:00,
2013-03-10 22:22:00,48.0,33.0,30.24,NE,40,3.0,5.0,56,-99.99,,,-99.99,0.070000,,2013-03-11 05:22:00,
2013-03-10 22:32:00,45.0,34.0,30.24,ENE,65,2.0,4.0,66,-99.99,,,-99.99,0.110000,,2013-03-11 05:32:00,
2013-03-10 22:42:00,45.0,34.0,30.24,ENE,65,2.0,4.0,66,-99.99,,,-99.99,0.110000,,2013-03-11 05:42:00,
2013-03-10 22:52:00,43.0,35.0,30.27,NNE,13,2.0,4.0,73,-99.99,,,-99.99,0.080000,,2013-03-11 05:52:00,
2013-03-10 23:02:00,46.0,35.0,30.27,NNW,345,2.0,3.0,65,-99.99,,,-99.99,0.010000,,2013-03-11 06:02:00,
2013-03-10 23:11:00,47.0,34.0,30.24,North,349,2.0,4.0,60,-99.99,,,-99.99,0.010000,,2013-03-11 06:11:00,
2013-03-10 23:22:00,47.0,33.0,30.24,NE,37,4.0,6.0,58,-99.99,,,-99.99,0.000000,,2013-03-11 06:22:00,
2013-03-10 23:32:00,47.0,34.0,30.24,NNW,345,3.0,4.0,60,-99.99,,,-99.99,0.000000,,2013-03-11 06:32:00,
2013-03-10 23:42:00,45.0,33.0,30.24,NNE,33,2.0,4.0,63,-99.99,,,-99.99,0.000000,,2013-03-11 06:42:00,
2013-03-10 23:52:00,44.0,34.0,30.24,NNE,17,3.0,4.0,67,-99.99,,,-99.99,0.010000,,2013-03-11 06:52:00,